Regional Weather Roundup
Issued by NWS

Home | Current Version | Previous Version | Graphics & Text | Print | Product List | Glossary On
Versions: 1 2 3 4 5 6 7 8 9 10 11 12 13 14 15 16 17 18 19 20 21 22 23 24 25 26 27 28 29
000
ASUS45 KGTF 022110
RWRMT
MONTANA HOURLY WEATHER ROUNDUP
NATIONAL WEATHER SERVICE GREAT FALLS MT
300 PM MDT SAT MAY 02 2015

NOTE: "FAIR" INDICATES FEW OR NO CLOUDS BELOW 12000 FEET WITH NO
SIGNIFICANT WEATHER AND/OR OBSTRUCTIONS TO VISIBILITY.

MTZ001>007-043-022200-
WEST OF THE DIVIDE

CITY           SKY/WX    TMP DP  RH WIND       PRES   REMARKS
KALISPELL      CLEAR     67   8  10 W8G24     29.80F
MISSOULA       SUNNY     69  15  12 SW12G22   29.85F
BUTTE          CLOUDY    63  22  20 W17G25    29.86S
DEER LODGE       N/A     64  18  16 SW10G16   29.87F
EUREKA           N/A     61  19  20 W5G18     29.85S
LIBBY            N/A     64  12  13 NW7       29.86S
$$

MTZ008-052>055-022200-
SOUTHWEST MONTANA

CITY           SKY/WX    TMP DP  RH WIND       PRES   REMARKS
BOZEMAN        CLOUDY    68  34  28 N7        29.80F
DILLON         CLOUDY    71  15  11 W18G28    29.81F
$$

MTZ009-010-012-014-046-048-049-054-022200-
EAST SLOPES AND CENTRAL MONTANA

CITY           SKY/WX    TMP DP  RH WIND       PRES   REMARKS
CUT BANK       SUNNY     55  32  41 N10G20    29.83S
GREAT FALLS    MOSUNNY   66  31  27 VRB6      29.78S
MALMSTROM AFB  MOSUNNY   65  31  27 W2G16     29.79R
HELENA         PTSUNNY   73  21  14 W15G26    29.79S
$$

MTZ011-013-016-021-045-047-050-051-022200-
NORTH CENTRAL MONTANA

CITY           SKY/WX    TMP DP  RH WIND       PRES   REMARKS
HAVRE          SUNNY     60  37  42 N17G24    29.81R
LEWISTOWN      CLOUDY    65  34  31 NW13G20   29.77R
CHINOOK          N/A     61  36  39 NW16G23   29.79R
FORT BENTON      N/A     63  34  34 N12G17    29.80R
$$

MTZ017>020-022>042-056>058-061-062-022200-
EASTERN PLAINS

CITY           SKY/WX    TMP DP  RH WIND       PRES   REMARKS
BAKER          MOSUNNY   75  26  16 NW20G29   29.72S
BILLINGS       CLOUDY    75  22  13 W18G32    29.74S
GLASGOW        MOSUNNY   71  35  26 N10       29.70S
JORDAN           N/A     76  28  17 NW16G24   29.69S
LIVINGSTON     MOSUNNY   71  20  14 W29G37    29.78F
MILES CITY     MOSUNNY   81  28  14 NW13G20   29.68F
SIDNEY         SUNNY     75  30  19 NW17      29.66F
WOLF POINT     MOSUNNY   78  31  17 W16G24    29.66F
BIG TIMBER       N/A     70  19  14 W37G47    29.76F
FORSYTH          N/A     79  23  12 W20G28    29.67F
PLENTYWOOD       N/A     68  36  30 NW14G21   29.69S
POPLAR           N/A     73  30  20 W13G18    29.67F
$$

REGIONAL REPORTS...DAKOTAS

CITY           SKY/WX    TMP DP  RH WIND       PRES   REMARKS
WILLISTON      MOSUNNY   77  32  19 NW10G18   29.65S
MINOT          MOSUNNY   80  31  16 W9G18     29.58F
DICKINSON      PTSUNNY   76  27  16 W17G28    29.65S
BEACH          FAIR      75  25  15 W16G30    29.69F
CROSBY         FAIR      70  32  24 NW10G20   29.67S
WATFORD CITY   FAIR      77  28  16 W20       29.63S
BISMARCK       CLOUDY    83  36  18 NW14G22   29.60S
GRAND FORKS    LGT RAIN  77  37  24 W21G30    29.60R
FARGO          SUNNY     87  31  13 S21       29.62F
BUFFALO SD       N/A     78  22  12 W17G29    29.67S
RAPID CITY     MOSUNNY   83  38  20 N20G29    29.70S
$$

REGIONAL REPORTS...WYOMING/IDAHO/WASHINGTON

CITY           SKY/WX    TMP DP  RH WIND       PRES   REMARKS
GILLETTE       MOSUNNY   74  25  16 N8        29.80F
SHERIDAN       CLOUDY    75  26  16 NE3       29.78F
BUFFALO WY     PTSUNNY   72  26  18 SE8       29.83F
CODY           MOSUNNY   72  18  13 SW10G22   29.81F
YELLOWSTONE LA   N/A     59  14  17 W14G22    30.00F
IDAHO FALLS    PTSUNNY   75  28  17 SW15G31   29.83F
SALMON         PTSUNNY   72  25  17 N15       29.77F
BOISE          SUNNY     77  28  16 NW14      29.84F
SPOKANE        MOSUNNY   64  12  13 W16G23    29.93F
$$

REGIONAL REPORTS...ALBERTA

CITY           SKY/WX    TMP DP  RH WIND       PRES   REMARKS
EDMONTON       PTSUNNY   45  34  65 NW23G32   29.84R
CALGARY        PTSUNNY   48  25  40 N24G32    29.89S
LETHBRIDGE     PTSUNNY   50  36  57 N12G22    29.89S
MEDICINE HAT   PTSUNNY   54  32  43 NW12      29.85R
$$

REGIONAL REPORTS...SASKATCHEWAN

CITY           SKY/WX    TMP DP  RH WIND       PRES   REMARKS
SWIFT CURRENT  PTSUNNY   55  34  44 W20G25    29.76S
REGINA         CLOUDY    59  37  44 W10       29.73R
SASKATOON      CLOUDY    59  23  25 NW20G30   29.70S
$$



USA.gov is the U.S. government's official web portal to all federal, state and local government web resources and services.